Weather in Rome

Italy     41°54′09″N   12°29′46″E
temp.,
°C
wind,
m/s
gust,
m/s
humid.,
%
clouds,
%
prec.,
mm/h
press.,
hPa
HPBL,
m
11 may, tue
tue1123:00+17nnw116286 0.0 101631
02:00+14nnw117215 0.0 101511
05:00+14nne227414 0.0 101420
08:00+17ne11646 0.0 1014133
11:00+24s35385 0.0 10131173
14:00+25ssw6836100 0.0 10111666
17:00+18ssw5880100 0.8 1011790
20:00+15sw3593100 6.7 1012229
12 may, wed
wed1223:00+14s11904 2.1 101234
02:00+13sse24940 2.5 101176
05:00+13se2495100 0.4 1010112
08:00+14se4691100 0.6 1011268
11:00+18s576088 0.2 10111418
14:00+19s455339 0.2 10111585
17:00+20ssw44461 0.0 10101635
20:00+15sw24701 0.0 1011153
13 may, thu
thu1323:00+13se24775 0.0 1011102
02:00+13se388142 0.0 1010234
05:00+11se229240 0.4 100923
08:00+15se358198 0.5 1009362
11:00+18s456091 0.2 10091468
14:00+19ssw665540 0.4 10091674
17:00+19sw57546 0.1 10091610
20:00+14ssw36750 0.3 1009242
14 may, fri
fri1423:00+12se23765 0.0 101062
02:00+11ese37792 0.0 1010136
05:00+10ese238310 0.0 101169
08:00+14ese356985 0.0 1012284
11:00+16s466842 0.1 1013978
14:00+20ssw5652100 0.4 10131826
17:00+19s5654100 0.1 10121526
20:00+16s5972100 0.2 1013830
15 may, sat
sat1523:00+13sse3995100 4.1 1013611
02:00+12n0195100 11.3 101143
05:00+12ene4898100 11.4 1006255
08:00+12nne3595100 32.1 1008274
11:00+15nw2480100 0.8 1009728
14:00+18nnw466898 2.7 10091414
17:00+17nw477797 1.8 1009953
20:00+15wnw23835 2.8 101172